AA7VG Weather Reports


time (UTC)temp
C
wind
direction
speed
KPH
gust
KPH
rain 1hr
cm
rain 24hr
cm
rain mn
cm
humidity
%
barometer
mb
20260504160425 13 312 4.8 14.5 0.00 0.00 0.00 38 1013.7
20260504150849 11 19 3.2 12.9 0.00 0.00 0.00 42 1013.7
20260504150345 11 349 11.3 17.7 0.00 0.00 0.00 41 1013.7
20260504141315 10 88 6.4 11.3 0.00 0.00 0.00 48 1013.3
20260504140812 10 156 3.2 3.2 0.00 0.00 0.00 47 1013.1
20260504140308 10 102 3.2 9.7 0.00 0.00 0.00 46 1013.1
20260504130737 8 138 8.0 16.1 0.00 0.00 0.00 47 1013.1
20260504130232 8 154 9.7 16.1 0.00 0.00 0.00 47 1012.8
20260504120156 8 198 4.8 14.5 0.00 0.00 0.00 47 1012.5
20260504110623 5 265 0.0 1.6 0.00 0.00 0.00 65 1011.2
20260504110120 5 260 0.0 6.4 0.00 0.00 0.00 64 1011.4
20260504100545 6 316 8.0 9.7 0.00 0.00 0.00 63 1010.6
20260504081939 7 136 0.0 0.0 0.00 0.00 0.00 58 1009.7
20260504081436 7 136 0.0 1.6 0.00 0.00 0.00 58 1009.5
20260504080932 7 138 0.0 1.6 0.00 0.00 0.00 58 1009.6
20260504080428 7 138 0.0 1.6 0.00 0.00 0.00 58 1009.9
20260504070356 8 153 1.6 1.6 0.00 0.00 0.00 55 1009.6
20260504050743 11 275 0.0 0.0 0.00 0.00 0.00 46 1009.6
20260504050242 11 275 0.0 0.0 0.00 0.00 0.00 45 1009.6
20260504045739 12 275 0.0 0.0 0.00 0.00 0.00 44 1009.5
20260504045239 12 276 0.0 0.0 0.00 0.00 0.00 44 1009.5
20260504044737 12 276 0.0 0.0 0.00 0.00 0.00 43 1009.3
20260504044234 12 276 0.0 0.0 0.00 0.00 0.00 43 1009.4
20260504043731 12 277 0.0 0.0 0.00 0.00 0.00 42 1009.6
20260504043228 12 282 0.0 1.6 0.00 0.00 0.00 42 1009.4
20260504042726 12 282 0.0 0.0 0.00 0.00 0.00 42 1009.1
20260504042222 12 320 0.0 0.0 0.00 0.00 0.00 42 1009.3
20260504041718 12 320 0.0 0.0 0.00 0.00 0.00 41 1009.1
20260504041214 12 322 1.6 1.6 0.00 0.00 0.00 41 1009.3
20260504040710 12 2 0.0 0.0 0.00 0.00 0.00 39 1009.1
20260504040208 12 2 0.0 0.0 0.00 0.00 0.00 38 1008.9
20260504035704 13 2 0.0 0.0 0.00 0.00 0.00 38 1009.0
20260504035202 13 2 0.0 0.0 0.00 0.00 0.00 37 1008.9
20260504034659 14 2 0.0 0.0 0.00 0.00 0.00 36 1008.6
20260504034155 14 2 0.0 0.0 0.00 0.00 0.00 36 1008.8
20260504033653 14 2 1.6 3.2 0.00 0.00 0.00 35 1008.5
20260504033150 14 14 0.0 0.0 0.00 0.00 0.00 36 1008.6
20260504032647 14 13 1.6 1.6 0.00 0.00 0.00 36 1008.5
20260504032144 15 17 0.0 0.0 0.00 0.00 0.00 35 1008.5
20260504031641 15 16 0.0 1.6 0.00 0.00 0.00 35 1008.5
20260504031138 15 18 0.0 1.6 0.00 0.00 0.00 35 1008.2
20260504030634 15 8 0.0 1.6 0.00 0.00 0.00 35 1008.2
20260504030131 16 14 0.0 0.0 0.00 0.00 0.00 34 1008.1
20260504025628 16 13 1.6 1.6 0.00 0.00 0.00 33 1008.2
20260504025125 16 17 3.2 3.2 0.00 0.00 0.00 32 1008.0
20260504024622 17 353 0.0 3.2 0.00 0.00 0.00 32 1007.7
20260504024118 17 16 0.0 3.2 0.00 0.00 0.00 31 1008.2
20260504023615 17 18 0.0 0.0 0.00 0.00 0.00 31 1007.9
20260504023111 17 0 1.6 3.2 0.00 0.00 0.00 30 1008.1
20260504022608 18 6 1.6 1.6 0.00 0.00 0.00 29 1008.2
20260504022104 18 16 1.6 3.2 0.00 0.00 0.00 28 1007.9
20260504021602 19 358 3.2 4.8 0.00 0.00 0.00 27 1008.2
20260504021058 20 32 1.6 4.8 0.00 0.00 0.00 26 1008.1
20260504020555 20 9 0.0 3.2 0.00 0.00 0.00 25 1008.0
20260504020051 20 7 3.2 6.4 0.00 0.00 0.00 24 1008.1
20260504015548 21 21 3.2 6.4 0.00 0.00 0.00 23 1008.1
20260504015044 21 32 6.4 11.3 0.00 0.00 0.00 22 1008.0
20260504014540 21 325 4.8 6.4 0.00 0.00 0.00 22 1008.0
20260504014038 21 4 3.2 9.7 0.00 0.00 0.00 21 1008.2
20260504013535 22 315 6.4 11.3 0.00 0.00 0.00 19 1008.0
20260504013032 22 33 3.2 11.3 0.00 0.00 0.00 21 1008.0
20260504012530 22 326 3.2 6.4 0.00 0.00 0.00 18 1008.2
20260504012027 23 316 1.6 4.8 0.00 0.00 0.00 17 1008.0
20260504011524 23 280 1.6 4.8 0.00 0.00 0.00 17 1008.0
20260504011020 23 261 1.6 4.8 0.00 0.00 0.00 17 1008.0
20260504010516 23 323 3.2 4.8 0.00 0.00 0.00 16 1008.2
20260504010012 23 311 3.2 3.2 0.00 0.00 0.00 18 1008.2
20260504005509 23 343 3.2 4.8 0.00 0.00 0.00 17 1008.4
20260504005006 23 331 3.2 6.4 0.00 0.00 0.00 17 1008.4
20260504004504 23 26 1.6 3.2 0.00 0.00 0.00 18 1008.2
20260504004000 23 9 3.2 4.8 0.00 0.00 0.00 19 1008.4
20260504003456 23 342 1.6 3.2 0.00 0.00 0.00 19 1008.4
20260504002954 23 293 3.2 4.8 0.00 0.00 0.00 18 1008.7
20260504002450 23 350 0.0 1.6 0.00 0.00 0.00 18 1008.6
20260504001948 23 301 1.6 3.2 0.00 0.00 0.00 18 1008.5
20260504001445 23 307 4.8 4.8 0.00 0.00 0.00 18 1008.5
20260504000942 25 334 3.2 11.3 0.00 0.00 0.00 17 1008.9
20260504000439 25 287 1.6 9.7 0.00 0.00 0.00 17 1008.8
20260503235936 24 290 4.8 9.7 0.00 0.00 0.00 18 1008.8
20260503235434 24 199 3.2 4.8 0.00 0.00 0.00 17 1008.7
20260503234931 25 285 8.0 14.5 0.00 0.00 0.00 17 1008.7
20260503234428 25 286 1.6 9.7 0.00 0.00 0.00 18 1008.9
20260503233927 25 273 4.8 9.7 0.00 0.00 0.00 17 1009.1
20260503233423 25 288 3.2 4.8 0.00 0.00 0.00 17 1008.8
20260503232919 23 320 1.6 3.2 0.00 0.00 0.00 17 1009.0
20260503232416 24 326 3.2 9.7 0.00 0.00 0.00 18 1009.3
20260503231914 24 303 6.4 11.3 0.00 0.00 0.00 18 1009.0
20260503231411 25 296 6.4 9.7 0.00 0.00 0.00 19 1009.3
20260503230907 23 321 1.6 9.7 0.00 0.00 0.00 18 1009.6
20260503230404 24 309 6.4 12.9 0.00 0.00 0.00 17 1009.5
20260503225902 24 304 6.4 9.7 0.00 0.00 0.00 17 1009.7
20260503225357 25 279 6.4 11.3 0.00 0.00 0.00 17 1009.6
20260503224854 24 320 3.2 9.7 0.00 0.00 0.00 18 1009.6
20260503224351 25 291 3.2 6.4 0.00 0.00 0.00 18 1009.9
20260503223849 25 333 9.7 17.7 0.00 0.00 0.00 18 1009.8
20260503223347 25 292 4.8 17.7 0.00 0.00 0.00 16 1009.8
20260503222842 24 322 1.6 4.8 0.00 0.00 0.00 18 1010.1
20260503222341 23 266 1.6 9.7 0.00 0.00 0.00 18 1009.9
20260503221838 24 19 9.7 12.9 0.00 0.00 0.00 18 1010.1
20260503221337 24 326 6.4 9.7 0.00 0.00 0.00 19 1010.3
20260503220832 24 314 1.6 3.2 0.00 0.00 0.00 19 1010.4
20260503220329 23 59 1.6 12.9 0.00 0.00 0.00 20 1010.5
20260503215826 24 252 6.4 12.9 0.00 0.00 0.00 19 1010.2
20260503215323 25 247 6.4 12.9 0.00 0.00 0.00 19 1010.4
20260503214821 25 308 8.0 11.3 0.00 0.00 0.00 19 1010.6
20260503214318 25 314 4.8 9.7 0.00 0.00 0.00 19 1010.6
20260503213815 25 316 4.8 17.7 0.00 0.00 0.00 19 1010.7
20260503213313 25 316 3.2 6.4 0.00 0.00 0.00 20 1010.7
20260503212810 25 182 0.0 4.8 0.00 0.00 0.00 19 1011.0
20260503212308 23 286 0.0 6.4 0.00 0.00 0.00 20 1011.0
20260503211805 23 320 4.8 12.9 0.00 0.00 0.00 19 1011.1
20260503211301 23 299 8.0 11.3 0.00 0.00 0.00 20 1011.1
20260503210801 23 262 3.2 6.4 0.00 0.00 0.00 21 1011.4
20260503210259 23 87 3.2 6.4 0.00 0.00 0.00 21 1011.4
20260503205754 23 256 1.6 11.3 0.00 0.00 0.00 20 1011.9
20260503205251 25 290 4.8 4.8 0.00 0.00 0.00 20 1012.0
20260503204747 23 303 3.2 4.8 0.00 0.00 0.00 22 1011.5
20260503204245 23 260 9.7 14.5 0.00 0.00 0.00 22 1011.8
20260503203742 23 159 1.6 6.4 0.00 0.00 0.00 22 1012.0
20260503203240 23 300 6.4 16.1 0.00 0.00 0.00 22 1012.1
20260503202737 23 290 4.8 9.7 0.00 0.00 0.00 23 1012.1
20260503202234 22 306 6.4 11.3 0.00 0.00 0.00 23 1012.3
20260503201732 23 47 3.2 12.9 0.00 0.00 0.00 21 1012.2
20260503201230 22 329 8.0 11.3 0.00 0.00 0.00 23 1012.2
20260503200726 22 313 6.4 11.3 0.00 0.00 0.00 23 1012.5
20260503200222 23 309 1.6 9.7 0.00 0.00 0.00 21 1012.6
20260503195719 23 296 6.4 9.7 0.00 0.00 0.00 22 1012.3
20260503195216 23 111 3.2 4.8 0.00 0.00 0.00 22 1012.6
20260503194713 22 328 3.2 4.8 0.00 0.00 0.00 22 1012.8
20260503194209 22 315 6.4 6.4 0.00 0.00 0.00 22 1012.7
20260503193705 21 336 3.2 3.2 0.00 0.00 0.00 24 1012.7
20260503193201 22 298 6.4 6.4 0.00 0.00 0.00 24 1013.0
20260503192657 22 137 3.2 6.4 0.00 0.00 0.00 23 1012.9
20260503192153 21 282 4.8 9.7 0.00 0.00 0.00 25 1013.0
20260503191649 21 297 4.8 6.4 0.00 0.00 0.00 24 1013.1
20260503191147 22 15 0.0 9.7 0.00 0.00 0.00 24 1013.5
20260503190643 22 285 3.2 6.4 0.00 0.00 0.00 25 1013.4
20260503190140 22 320 3.2 6.4 0.00 0.00 0.00 24 1013.5
20260503185637 22 354 1.6 4.8 0.00 0.00 0.00 24 1013.5
20260503185132 22 336 0.0 3.2 0.00 0.00 0.00 25 1013.4
20260503184627 21 33 1.6 3.2 0.00 0.00 0.00 25 1013.8
20260503184124 21 25 3.2 6.4 0.00 0.00 0.00 27 1013.8
20260503183621 22 337 6.4 11.3 0.00 0.00 0.00 27 1013.8
20260503183118 21 279 1.6 3.2 0.00 0.00 0.00 27 1013.7
20260503182616 21 194 3.2 4.8 0.00 0.00 0.00 27 1014.2
20260503182114 21 99 1.6 3.2 0.00 0.00 0.00 27 1013.8
20260503181611 20 74 3.2 4.8 0.00 0.00 0.00 29 1013.9
20260503181108 20 145 1.6 4.8 0.00 0.00 0.00 30 1013.9
20260503180605 20 304 1.6 3.2 0.00 0.00 0.00 30 1014.2
20260503180103 20 81 3.2 3.2 0.00 0.00 0.00 30 1014.3
20260503175559 20 331 1.6 3.2 0.00 0.00 0.00 28 1014.4
20260503175056 20 306 4.8 4.8 0.00 0.00 0.00 29 1014.5
20260503174553 19 132 1.6 1.6 0.00 0.00 0.00 32 1014.5
20260503174050 18 80 3.2 6.4 0.00 0.00 0.00 33 1014.5
20260503173545 20 311 0.0 11.3 0.00 0.00 0.00 30 1014.6
20260503173041 19 62 0.0 3.2 0.00 0.00 0.00 32 1014.4
20260503172539 19 331 3.2 4.8 0.00 0.00 0.00 31 1014.7
20260503172036 19 0 1.6 3.2 0.00 0.00 0.00 32 1014.7
20260503171532 18 89 1.6 3.2 0.00 0.00 0.00 33 1014.8
20260503171030 19 74 3.2 4.8 0.00 0.00 0.00 31 1015.0
20260503170526 18 26 1.6 3.2 0.00 0.00 0.00 31 1015.0